Location: Newark
(36.6333°N, 138.1833°E)
Time: 18:45:25
(UTC+00:00)

ISS - Visible Passes

Search period start: 17 February 2020 00:00
Search period end: 27 February 2020 00:00
Orbit: 416 x 422 km, 51.6° (Epoch: 17 February)

Date Brightness Start Highest point End Pass type
(mag) Time Alt. Az. Time Alt. Az. Time Alt. Az.
19 Feb -0.8 20:21:18 10° S 20:23:35 17° SE 20:25:52 10° E visible
21 Feb -3.2 20:21:42 11° SW 20:24:51 57° SE 20:28:11 10° ENE visible
22 Feb -2.2 19:36:49 29° SSE 19:37:18 30° SE 19:40:18 10° ENE visible
23 Feb -0.3 18:51:42 11° E 18:51:42 11° E 18:52:02 10° E visible
23 Feb -3.2 20:24:41 23° W 20:26:19 42° NW 20:29:34 10° NE visible
24 Feb -3.1 19:39:21 50° NNE 19:39:21 50° NNE 19:42:00 10° NE visible
25 Feb -0.5 18:53:53 13° ENE 18:53:53 13° ENE 18:54:17 10° ENE visible
25 Feb -1.9 20:26:51 16° NW 20:28:00 18° NNW 20:30:26 10° NNE visible
26 Feb -1.9 19:41:15 22° N 19:41:15 22° N 19:43:04 10° NNE visible
